SCP
0 0 0 0 0 0 0 0 0 0 0 0 0 0 0 0 0 0 0 0 0 0 0 0 0 0 0 0 0 0 0 0 0 0 0 0 0 0 0 0 0 0 0
0 0 0 0 0 0 0 0 0 0 0 0 0 0 0 0 0 0 0 0 0 0 0 0 0 0 0 0 0 0 0 0 0 0 0 0 0 0 0 0 0 0 0
0 0 0 0 0 0 0 0 0 0 0 0 0 0 0 0 0 0 0 0 0 0 0 0 0 0 0 0 0 0 0 0 0 0 0 0 0 0 0 0 0 0 0
0 0 0 0 0 0 0 0 0 0 0 0 0 0 0 0 0 0 0 0 0 0 0 0 0 0 0 0 0 0 0 0 0 0 0 0 0 0 0 0 0 0 0
0 0 0 0 0 0 0 0 0 0 0 0 0 0 0 0 0 0 0 0 0 0 0 0 0 0 0 0 0 0 0 0 0 0 0 0 0 0 0 0 0 0 0
0 0 0 0 0 0 0 0 0 0 0 0 0 0 0 0 0 0 0 0 0 0 0 0 0 0 0 0 0 0 0 0 0 0 0 0 0 0 0 0 0 0 0
0 0 0 0 0 0 0 0 0 0 0 0 0 0 0 0 0 0 0 0 0 0 0 0 0 0 0 0 0 0 0 0 0 0 0 0 0 0 0 0 0 0 0
0 0 0 0 0 0 0 0 0 0 0 0 0 0 0 0 0 0 0 0 0 0 0 0 0 0 0 0 0 0 0 0 0 0 0 0 0 0 0 0 0 0 0
0 0 0 0 0 0 0 0 0 0 0 0 0 0 0 0 0 0 0 0 0 0 0 0 0 0 0 0 0 0 0 0 0 0 0 0 0 0 0 0 0 0 0
0 0 0 0 0 0 0 0 0 0 0 0 0 0 0 0 0 0 0 0 0 0 0 0 0 0 0 0 0 0 0 0 0 0 0 0 0 0 0 0 0 0 0
0 0 0 0 0 0 0 0 0 0 0 0 0 0 0 0 0 0 0 0 0 0 0 0 0 0 0 0 0 0 0 0 0 0 0 0 0 0 0 0 0 0 0
0 0 0 0 0 0 0 0 0 0 0 0 0 0 0 0 0 0 0 0 0 0 0 0 0 0 0 0 0 0 0 0 0 0 0 0 0 0 0 0 0 0 0
0 0 0 0 0 0 0 0 0 0 0 0 0 0 0 0 0 0 0 0 0 0 0 0 0 0 0 0 0 0 0 0 0 0 0 0 0 0 0 0 0 0 0
0 0 0 0 0 0 0 0 0 0 0 0 0 0 0 0 0 0 0 0 0 0 0 0 0 0 0 0 0 0 0 0 0 0 0 0 0 0 0 0 0 0 0
0 0 0 0 0 0 0 0 0 0 0 0 0 0 0 0 0 0 0 0 0 0 0 0 0 0 0 0 0 0 0 0 0 0 0 0 0 0 0 0 0 0 0
1 0 0 0 0 0 0 0 0 0 0 0 0 0 0 0 0 0 0 0 0 0 0 0 0 0 0 0 0 0 0 0 0 0 0 0 0 0 0 0 0 0 0
1 0 0 0 0 0 0 0 0 0 0 0 0 0 0 0 0 0 0 0 0 0 0 0 0 1 1 1 0 0 0 0 0 0 0 0 0 0 0 0 0 0 0
1 1 0 0 0 0 1 1 1 1 0 0 0 0 0 0 0 0 0 0 1 1 1 0 1 1 1 1 1 1 0 0 0 0 0 0 0 0 0 0 0 0 0
1 1 1 1 1 1 1 1 1 1 1 1 1 1 0 0 0 1 1 1 1 1 1 1 1 1 1 1 1 1 0 0 0 0 0 0 0 0 0 0 0 0 0
1 1 1 1 1 1 1 1 1 1 1 1 1 1 1 1 1 1 1 1 1 1 1 1 1 1 1 1 1 1 1 1 0 0 0 0 0 0 0 0 0 0 0
1 1 1 1 1 1 1 1 1 1 1 1 1 1 1 0 0 0 1 1 1 1 1 1 1 1 1 1 1 1 1 1 0 0 0 0 0 0 0 0 0 0 0
1 1 1 1 1 1 0 0 1 1 1 1 1 0 0 0 0 0 0 0 0 1 1 1 1 1 1 1 1 1 1 1 0 0 0 0 0 0 0 0 0 0 0
1 1 1 1 1 1 0 0 0 1 1 1 0 0 0 0 0 0 0 0 0 0 0 1 1 1 1 1 1 1 1 1 1 1 0 0 0 0 0 0 0 0 0
1 1 1 1 1 1 0 0 0 0 0 0 0 0 0 0 0 0 0 0 0 0 0 0 1 1 1 1 1 1 1 1 1 1 1 1 0 0 0 0 0 0 0
1 1 1 1 1 1 0 0 0 0 0 0 0 0 0 0 0 0 0 0 0 0 0 0 0 0 0 0 1 1 1 1 1 1 1 1 1 1 1 1 0 0 0
1 1 1 1 1 1 0 0 0 0 0 0 0 0 0 0 0 0 0 0 0 0 0 0 0 0 0 0 0 1 1 1 1 1 1 1 1 1 1 1 1 0 0
Wind_Speed
3 3 3 2 3 3 3 3 3 3 3 3 3 3 2 2 2 2 5 8 7 7 7 6 6 6 6 6 6 6 6 6 6 6 7 7 6 7 7 8 8 8 9
3 2 3 2 2 2 2 2 3 3 2 2 2 2 2 2 2 2 3 7 8 7 6 6 6 6 6 6 6 7 7 7 6 7 7 7 6 7 7 8 8 8 8
3 2 2 2 2 2 3 2 3 2 2 3 3 2 2 2 2 1 2 2 5 8 7 6 6 5 6 6 6 7 7 7 6 6 7 7 7 7 7 7 8 8 8
1 1 1 2 2 1 2 2 1 2 2 1 2 1 1 2 2 2 2 2 2 3 7 8 7 6 6 6 6 7 7 7 7 7 8 8 8 8 8 8 8 8 8
1 1 1 2 1 1 1 1 2 1 1 1 1 1 1 2 2 2 2 2 2 2 2 7 8 7 7 7 6 6 7 7 8 8 9 9 9 9 9 9 9 8 8
2 1 1 1 1 1 1 1 1 1 0 0 0 1 1 1 2 1 2 2 2 3 3 2 5 6 9 8 7 7 7 7 8 9 9 10 10 9 9 9 9 9 9
2 1 1 2 1 1 1 1 1 2 1 1 1 1 2 3 2 2 2 2 2 2 2 3 3 3 4 9 8 7 8 8 7 8 9 9 10 10 10 10 10 10 10
3 3 2 2 2 1 2 1 1 1 0 1 1 1 1 3 3 2 2 3 2 2 3 3 3 3 4 3 4 7 7 7 7 7 8 8 8 8 9 10 11 11 11
3 2 2 2 2 3 2 2 2 2 1 1 1 2 2 1 0 2 1 1 1 2 2 2 4 4 4 4 3 6 6 6 7 7 6 6 6 7 7 8 9 10 10
3 3 3 3 3 2 2 3 2 2 2 2 1 1 2 2 3 1 2 2 2 2 2 2 2 3 3 3 2 1 4 5 6 6 5 5 5 6 8 9 9 10 10
3 3 3 2 3 2 2 1 1 3 3 3 2 1 1 2 3 3 2 2 1 1 1 2 2 2 2 3 3 1 3 4 4 5 5 6 6 6 7 8 9 9 9
2 3 3 2 3 2 2 3 3 4 3 3 3 2 2 2 2 2 3 3 2 1 1 1 2 2 2 2 2 1 3 3 3 4 5 5 5 6 6 7 7 7 8
2 2 2 2 2 2 3 3 3 3 3 3 3 3 3 3 3 3 3 3 3 2 1 2 1 2 2 1 1 2 4 4 3 3 4 4 4 4 4 5 5 5 6
2 2 2 2 2 2 3 3 3 3 3 3 4 3 3 3 3 3 3 4 4 3 2 2 1 1 2 2 1 3 3 4 4 3 4 4 4 4 4 4 5 5 5
2 3 3 3 3 3 3 3 2 3 3 4 4 4 4 2 3 3 3 4 4 4 3 2 1 1 2 1 1 2 2 4 5 5 4 4 3 3 4 4 4 4 4
2 3 3 3 3 3 3 3 3 3 3 3 2 2 3 3 2 3 3 3 4 4 5 2 2 2 2 3 2 3 3 5 6 6 4 4 4 4 4 4 4 4 4
3 3 3 3 3 3 3 3 4 3 4 3 3 3 3 3 3 3 3 3 3 3 4 4 3 2 3 4 2 3 4 4 4 7 6 5 5 4 4 4 4 3 4
5 4 4 4 4 3 3 4 4 4 4 4 3 3 3 3 3 4 3 4 3 4 5 5 4 3 3 4 3 5 4 4 4 6 8 7 6 6 5 5 4 4 4
5 4 4 4 4 3 3 4 4 4 4 3 3 3 3 3 4 3 4 4 4 4 4 5 5 3 3 3 4 4 4 4 5 5 8 9 8 7 7 6 5 5 4
5 5 4 4 4 4 4 4 4 3 3 3 3 3 3 4 4 4 4 4 5 5 5 6 5 4 3 3 4 4 4 3 4 4 4 5 7 10 10 8 7 6 5
5 5 5 4 4 4 4 3 3 4 3 3 3 3 3 2 3 4 5 4 4 5 5 5 5 4 4 3 3 4 4 4 4 4 4 4 4 5 6 9 8 7 6
5 5 5 5 5 4 2 2 3 3 3 3 3 3 3 2 2 3 3 4 5 5 6 5 5 5 5 4 4 5 5 5 5 3 4 5 4 4 4 3 5 7 6
5 5 5 5 4 3 3 4 4 3 3 3 3 3 4 2 3 3 3 4 4 5 5 7 7 6 5 4 5 6 5 6 6 4 4 6 4 4 4 2 7 7 6
5 5 4 4 4 3 5 5 5 5 4 4 4 4 4 3 3 3 4 3 4 3 4 5 5 6 5 5 5 7 6 6 6 4 4 5 4 5 4 2 8 8 8
5 5 5 5 4 3 5 6 6 5 4 5 4 4 4 3 1 2 3 4 4 4 2 2 3 4 4 4 5 5 5 6 5 3 2 4 4 4 4 4 5 9 9
4 5 4 5 4 4 4 6 6 4 4 4 4 3 3 2 2 2 4 4 4 4 4 3 3 4 4 3 5 5 6 6 5 4 1 3 4 3 4 3 2 4 6
Wind_Direction
86 82 79 85 98 108 131 126 116 120 133 143 136 132 131 112 116 128 133 151 161 170 177 181 183 186 189 192 196 201 205 209 210 213 212 212 213 215 216 215 213 213 214
88 95 103 86 85 87 82 108 119 127 119 103 117 123 131 123 110 136 146 152 163 172 180 187 194 198 198 200 201 207 212 216 216 215 210 211 216 220 219 220 220 218 217
103 103 96 107 88 95 108 114 105 112 128 129 126 128 147 141 133 146 163 171 165 172 181 191 200 207 208 211 212 215 217 219 222 220 215 215 216 219 220 222 222 220 218
123 121 91 88 92 113 111 118 108 93 92 114 119 136 146 154 172 180 181 183 202 178 174 184 199 211 218 222 222 225 224 223 225 227 221 218 218 222 222 223 223 222 220
151 153 91 77 137 105 102 130 103 83 108 115 156 161 188 187 186 191 190 200 192 214 207 170 189 208 221 226 231 233 234 231 230 231 229 226 225 226 225 224 225 224 223
169 206 155 142 199 141 136 95 128 146 215 236 278 103 220 201 216 206 224 209 208 219 236 221 198 197 207 221 232 236 239 242 237 233 233 234 232 231 227 226 226 226 225
174 215 217 169 213 156 176 170 188 173 174 160 207 192 184 198 207 215 229 240 218 222 236 238 250 252 197 199 218 231 239 244 243 239 238 238 235 232 228 227 228 228 227
197 194 207 222 192 187 188 200 212 262 165 168 281 271 215 177 194 188 201 215 235 225 227 225 232 243 269 241 181 207 233 241 243 245 245 241 235 236 235 233 231 230 229
205 215 205 227 222 224 179 201 206 221 238 217 278 299 303 14 315 162 192 215 242 249 240 224 222 228 242 254 240 193 215 229 240 249 253 244 236 234 236 237 235 233 232
216 210 210 213 230 232 194 215 179 220 236 233 195 258 310 341 300 254 193 180 203 232 260 259 240 223 235 243 231 225 200 218 232 241 247 243 234 235 239 239 238 235 233
214 213 212 209 212 219 208 250 234 241 238 260 259 237 235 229 254 280 293 288 243 225 240 264 267 254 237 248 251 194 179 214 232 240 244 241 238 241 244 244 243 241 237
197 203 204 205 209 208 201 220 233 229 243 263 274 268 256 260 265 275 280 276 288 292 272 272 264 253 246 250 258 122 187 206 223 234 240 244 243 246 250 250 249 244 239
194 178 201 205 212 206 213 221 222 238 237 239 249 262 266 271 285 288 286 295 297 285 258 241 251 266 270 270 224 179 187 190 210 229 240 245 246 248 249 250 253 250 245
199 167 190 191 205 215 215 216 228 223 222 234 242 255 267 267 270 272 281 291 290 285 250 260 273 282 301 282 56 222 202 176 201 222 239 243 243 241 241 242 244 245 245
200 180 192 193 201 208 220 223 230 233 227 236 239 232 254 265 263 268 266 270 282 289 289 224 254 265 274 279 179 242 239 168 196 211 226 236 235 237 239 235 235 236 239
212 195 201 204 211 213 213 222 221 216 224 230 244 265 268 272 275 267 269 274 273 279 288 308 279 286 299 279 179 245 240 184 197 204 215 222 225 226 224 225 227 228 229
200 207 208 211 216 214 211 215 228 219 226 233 238 237 251 276 280 279 275 271 271 273 276 286 297 289 263 275 271 258 241 234 200 190 205 216 220 221 220 220 223 222 220
204 203 206 210 215 213 216 221 231 228 228 231 237 242 252 252 259 274 278 275 276 279 279 286 289 282 268 260 265 264 260 249 248 181 194 209 214 215 215 214 211 211 215
207 211 213 217 221 220 219 222 229 231 231 232 235 240 248 256 261 271 275 278 276 274 276 277 279 287 279 272 264 256 258 263 261 197 194 202 206 208 209 209 210 214 218
207 208 210 213 217 220 220 217 214 222 228 232 241 247 248 254 261 266 266 271 279 280 271 271 274 273 272 270 269 270 263 249 261 257 234 220 204 205 207 205 206 213 217
212 209 212 211 210 214 219 215 215 216 223 231 239 250 254 274 307 290 288 285 281 277 276 275 277 278 280 285 280 278 278 278 265 261 259 245 218 220 208 201 204 209 215
216 214 215 214 214 223 166 187 221 209 217 229 236 248 246 220 235 244 272 287 295 284 288 287 280 282 284 284 288 282 285 285 282 269 274 271 258 247 237 224 172 186 206
211 214 214 215 218 213 160 175 210 218 222 233 237 246 257 247 250 259 239 230 243 251 266 278 286 289 287 292 293 281 277 281 286 292 278 273 266 259 249 192 159 180 200
213 217 217 218 219 204 176 186 204 217 228 229 231 239 249 257 266 279 275 280 279 274 265 261 274 283 292 298 279 276 276 268 263 260 263 272 270 268 266 218 166 185 199
210 216 218 219 217 199 184 191 206 216 220 223 225 229 238 242 270 287 270 277 285 288 267 255 264 270 290 292 289 279 276 271 273 268 253 273 278 279 271 249 185 186 199
210 219 217 216 213 202 176 184 206 222 219 221 218 217 211 231 206 239 253 262 275 289 295 283 248 241 252 248 242 267 281 276 281 280 279 268 274 283 275 255 239 207 212